Location: Presov
(49.0000°N, 21.2500°E)
Time: 04:25:00
(UTC+02:00)

Courier 1B Rocket - All Passes

Search period start: 21 April 2021 00:00
Search period end: 01 May 2021 00:00
Orbit: 920 x 1202 km, 28.2° (Epoch: 20 April)

Date Brightness Start Highest point End Pass type
(mag) Time Alt. Az. Time Alt. Az. Time Alt. Az.
21 Apr - 20:04:07 10° S 20:04:45 10° SSE 20:05:23 10° SSE visible
21 Apr - 21:53:51 10° SSW 21:56:46 13° S 21:59:45 10° SSE visible
22 Apr - 20:53:29 10° SSW 20:56:06 12° S 20:58:46 10° SSE visible
22 Apr - 22:46:58 10° SSW 22:48:10 10° SSW 22:49:24 10° S visible
23 Apr - 19:53:40 10° S 19:55:28 11° S 19:57:17 10° SSE daylight
23 Apr - 21:45:24 10° SSW 21:47:30 11° S 21:49:37 10° S visible
24 Apr - 20:44:36 10° SSW 20:46:50 12° S 20:49:07 10° SSE visible
25 Apr - 19:44:17 10° SSW 19:46:13 11° S 19:48:10 10° SSE daylight
26 Apr - 18:44:45 10° S 18:45:37 10° S 18:46:29 10° SSE daylight
26 Apr - 20:36:36 10° SSW 20:37:36 10° S 20:38:36 10° S visible
27 Apr - 19:35:32 10° SSW 19:36:59 11° S 19:38:27 10° S daylight
28 Apr - 18:35:12 10° S 18:36:24 11° S 18:37:36 10° SSE daylight
30 Apr - 18:27:00 10° S 18:27:11 10° S 18:27:24 10° S daylight
